N7QNM-13 Weather Reports


time (UTC)temp
C
wind
direction
speed
KPH
gust
KPH
rain 1hr
cm
rain 24hr
cm
rain mn
cm
humidity
%
barometer
mb
20260903080045 15 197 8.0 12.9 0.00 0.74 0.00 68 1008.5
20260903075107 15 181 8.0 12.9 0.00 0.74 0.00 71 1008.4
20260903074044 15 172 8.0 12.9 0.00 0.74 0.00 71 1008.4
20260903073045 15 175 8.0 12.9 0.00 0.74 0.00 74 1008.3
20260903072045 15 176 9.7 16.1 0.00 0.74 0.00 76 1008.3
20260903071045 15 155 16.1 20.9 0.03 0.74 0.00 78 1008.5
20260903070107 15 153 11.3 14.5 0.03 0.74 0.00 80 1008.5
20260903065046 15 165 8.0 14.5 0.03 0.74 0.74 79 1008.5
20260903064045 15 181 4.8 8.0 0.05 0.74 0.74 80 1008.4
20260903063045 15 148 3.2 8.0 0.05 0.74 0.74 82 1008.5
20260903062108 15 154 4.8 9.7 0.05 0.74 0.74 83 1008.4
20260903061107 15 168 8.0 12.9 0.03 0.71 0.71 83 1008.5
20260903060046 15 164 9.7 16.1 0.03 0.71 0.71 83 1008.4
20260903055047 15 175 12.9 17.7 0.03 0.69 0.69 83 1008.3
20260903054046 16 165 14.5 20.9 0.03 0.69 0.69 82 1008.3
20260903053047 16 164 14.5 17.7 0.05 0.69 0.69 81 1008.3
20260903052107 15 191 17.7 25.7 0.05 0.69 0.69 82 1008.3
20260903051048 15 174 16.1 20.9 0.08 0.69 0.69 82 1008.2
20260903050048 15 169 14.5 20.9 0.10 0.69 0.69 83 1008.4
20260903045106 15 160 11.3 16.1 0.10 0.66 0.66 83 1008.5
20260903044048 15 171 14.5 20.9 0.10 0.66 0.66 83 1008.3
20260903043046 15 152 14.5 19.3 0.08 0.64 0.64 83 1008.2
20260903042046 16 185 14.5 19.3 0.08 0.61 0.61 82 1008.2
20260903041048 16 171 20.9 24.1 0.05 0.61 0.61 81 1008.1
20260903040048 16 151 20.9 25.7 0.05 0.58 0.58 81 1008.1
20260903035048 16 137 20.9 25.7 0.05 0.56 0.56 80 1007.9
20260903034049 16 143 20.9 27.4 0.05 0.56 0.56 79 1007.8
20260903033049 16 158 19.3 27.4 0.08 0.56 0.56 79 1007.8
20260903032049 16 154 17.7 24.1 0.08 0.56 0.56 79 1007.8
20260903031047 16 169 17.7 27.4 0.08 0.53 0.53 79 1007.8
20260903030047 16 147 19.3 24.1 0.10 0.53 0.53 79 1007.7
20260903025047 16 145 19.3 22.5 0.08 0.51 0.51 78 1007.7
20260903024047 16 152 17.7 27.4 0.08 0.51 0.51 77 1007.7
20260903023048 16 136 12.9 17.7 0.08 0.48 0.48 77 1007.8
20260903022048 16 164 12.9 17.7 0.08 0.48 0.48 77 1007.9
20260903021049 16 160 14.5 20.9 0.08 0.46 0.46 77 1007.9
20260903020049 15 164 12.9 19.3 0.08 0.46 0.46 78 1008.1
20260903015048 15 162 12.9 17.7 0.13 0.43 0.43 78 1007.9
20260903014049 16 159 12.9 16.1 0.13 0.43 0.43 77 1008.0
20260903013050 16 168 14.5 20.9 0.15 0.41 0.41 76 1008.1
20260903012050 16 167 12.9 17.7 0.18 0.41 0.41 76 1008.1
20260903011110 16 185 11.3 16.1 0.20 0.38 0.38 76 1008.1
20260903010048 16 144 16.1 20.9 0.20 0.36 0.36 74 1008.1
20260903005049 16 158 14.5 17.7 0.20 0.33 0.33 74 1008.0
20260903004131 16 180 16.1 19.3 0.20 0.30 0.30 73 1007.9
20260903003051 16 170 17.7 25.7 0.18 0.25 0.25 72 1007.8
20260903002050 16 178 16.1 24.1 0.13 0.20 0.20 72 1007.9
20260903001150 16 178 11.3 16.1 0.13 0.18 0.18 71 1007.9
20260903000051 17 175 14.5 19.3 0.13 0.15 0.15 68 1007.8
20260902235049 17 204 12.9 20.9 0.08 0.13 0.13 66 1007.6
20260902234051 17 92 17.7 22.5 0.08 0.10 0.10 64 1007.4
20260902233550 17 172 17.7 24.1 0.05 0.10 0.10 63 1007.5
20260902232550 18 205 12.9 27.4 0.05 0.08 0.08 63 1007.5
20260902231550 19 184 19.3 24.1 0.03 0.05 0.05 57 1007.5
20260902230611 19 207 16.1 24.1 0.00 0.03 0.03 50 1007.4
20260902225550 20 180 12.9 19.3 0.00 0.03 0.03 50 1007.6
20260902225050 20 213 14.5 20.9 0.00 0.03 0.03 49 1007.6
20260902224050 20 238 14.5 24.1 0.00 0.03 0.03 47 1007.7
20260902223051 20 187 11.3 20.9 0.03 0.03 0.03 46 1007.7
20260902222052 20 215 12.9 19.3 0.03 0.03 0.03 46 1007.7
20260902221052 20 214 12.9 20.9 0.03 0.03 0.03 49 1007.6
20260902220112 19 217 19.3 32.2 0.03 0.03 0.03 51 1007.6
20260902215052 20 213 17.7 30.6 0.03 0.03 0.03 56 1007.6
20260902214051 22 196 14.5 20.9 0.03 0.03 0.03 52 1007.6
20260902213051 23 177 14.5 19.3 0.00 0.00 0.00 42 1007.0
20260902212051 23 177 14.5 20.9 0.00 0.00 0.00 39 1006.7
20260902211052 24 187 12.9 22.5 0.00 0.00 0.00 39 1006.5
20260902210113 25 169 14.5 20.9 0.00 0.00 0.00 37 1006.4
20260902205051 26 166 14.5 22.5 0.00 0.00 0.00 35 1006.3
20260902204052 26 215 9.7 19.3 0.00 0.00 0.00 35 1006.3
20260902203052 26 179 9.7 17.7 0.00 0.00 0.00 36 1006.3
20260902202113 25 124 11.3 20.9 0.00 0.00 0.00 37 1006.4
20260902201052 25 219 11.3 20.9 0.00 0.00 0.00 37 1006.5
20260902200052 25 263 12.9 19.3 0.00 0.00 0.00 37 1006.6
20260902195112 25 238 14.5 25.7 0.00 0.00 0.00 37 1006.7
20260902194052 25 249 14.5 25.7 0.00 0.00 0.00 37 1006.8
20260902193054 24 214 11.3 16.1 0.00 0.00 0.00 39 1007.1
20260902192053 23 188 11.3 20.9 0.00 0.00 0.00 39 1007.2
20260902191053 23 158 16.1 20.9 0.00 0.00 0.00 39 1007.4
20260902190053 23 235 8.0 20.9 0.00 0.00 0.00 39 1007.5
20260902185115 23 157 14.5 25.7 0.00 0.00 0.00 40 1007.5
20260902184114 23 145 16.1 22.5 0.00 0.00 0.00 42 1007.6
20260902183053 23 170 16.1 19.3 0.00 0.00 0.00 42 1007.7
20260902182054 23 175 17.7 27.4 0.00 0.00 0.00 42 1007.8
20260902181054 22 164 16.1 22.5 0.00 0.00 0.00 42 1007.9
20260902180054 22 166 16.1 27.4 0.00 0.00 0.00 44 1007.9
20260902175054 22 160 17.7 22.5 0.00 0.00 0.00 44 1008.0
20260902174054 22 152 19.3 25.7 0.00 0.00 0.00 46 1008.0
20260902173054 22 164 16.1 20.9 0.00 0.00 0.00 44 1007.9
20260902172054 22 164 11.3 17.7 0.00 0.00 0.00 44 1008.0
20260902171054 23 171 16.1 24.1 0.00 0.00 0.00 45 1008.1
20260902170116 22 156 8.0 14.5 0.00 0.00 0.00 44 1008.2
20260902165116 22 29 3.2 4.8 0.00 0.00 0.00 44 1008.2
20260902164056 22 23 6.4 9.7 0.00 0.00 0.00 45 1008.2
20260902163055 21 5 4.8 8.0 0.00 0.00 0.00 46 1008.2
20260902162055 21 319 6.4 9.7 0.00 0.00 0.00 47 1008.1
20260902161055 20 9 3.2 6.4 0.00 0.00 0.00 52 1008.3
20260902160055 18 45 3.2 4.8 0.00 0.00 0.00 58 1008.5
20260902155055 17 0.0 0.0 0.00 0.00 0.00 67 1008.5
20260902154055 17 0.0 0.0 0.00 0.00 0.00 70 1008.5
20260902153055 16 0.0 0.0 0.00 0.00 0.00 71 1008.6
20260902152117 16 104 3.2 4.8 0.00 0.00 0.00 72 1008.6
20260902151117 16 0.0 0.0 0.00 0.00 0.00 74 1008.7
20260902150056 16 121 3.2 4.8 0.00 0.00 0.00 76 1008.6
20260902145056 15 46 1.6 4.8 0.00 0.00 0.00 80 1008.7
20260902144056 14 100 0.0 3.2 0.00 0.00 0.00 84 1008.7
20260902143116 13 101 3.2 3.2 0.00 0.00 0.00 86 1008.6
20260902142058 12 113 1.6 3.2 0.00 0.00 0.00 87 1008.8
20260902141118 11 23 0.0 4.8 0.00 0.00 0.00 85 1008.6
20260902140158 11 187 1.6 3.2 0.00 0.00 0.00 84 1008.6
20260902135057 11 0.0 1.6 0.00 0.00 0.00 84 1008.6
20260902134558 11 64 1.6 3.2 0.00 0.00 0.00 83 1008.4
20260902133618 11 248 0.0 1.6 0.00 0.00 0.00 83 1008.3
20260902132557 11 186 1.6 4.8 0.00 0.00 0.00 82 1008.3
20260902131559 11 338 1.6 3.2 0.00 0.00 0.00 82 1008.4
20260902130623 11 278 0.0 3.2 0.00 0.00 0.00 80 1008.6
20260902125557 11 160 1.6 3.2 0.00 0.00 0.00 80 1008.4
20260902124619 11 210 1.6 4.8 0.00 0.00 0.00 79 1008.5
20260902123557 11 0.0 0.0 0.00 0.00 0.00 78 1008.5
20260902122559 12 186 0.0 3.2 0.00 0.00 0.00 77 1008.6
20260902121559 12 0.0 0.0 0.00 0.00 0.00 76 1008.4
20260902120559 12 0.0 0.0 0.00 0.00 0.00 76 1008.5
20260902115600 12 234 1.6 3.2 0.00 0.00 0.00 75 1008.4
20260902114640 12 266 0.0 4.8 0.00 0.00 0.00 75 1008.4
20260902113558 12 225 0.0 3.2 0.00 0.00 0.00 73 1008.3
20260902112558 12 0.0 0.0 0.00 0.00 0.00 72 1008.3
20260902111600 12 236 1.6 4.8 0.00 0.00 0.00 72 1008.2
20260902110600 12 126 4.8 6.4 0.00 0.00 0.00 73 1008.2
20260902105558 13 111 1.6 4.8 0.00 0.00 0.00 72 1008.1
20260902104559 13 338 0.0 3.2 0.00 0.00 0.00 70 1008.0
20260902103559 13 0.0 0.0 0.00 0.00 0.00 67 1007.7
20260902102559 14 55 0.0 1.6 0.00 0.00 0.00 64 1007.6
20260902101559 15 113 0.0 3.2 0.00 0.00 0.00 62 1007.6
20260902100559 15 0.0 0.0 0.00 0.00 0.00 59 1007.6
20260902095601 16 234 0.0 3.2 0.00 0.00 0.00 55 1007.6
20260902094601 17 251 1.6 3.2 0.00 0.00 0.00 53 1007.6
20260902093601 17 265 4.8 4.8 0.00 0.00 0.00 51 1007.7
20260902092601 18 279 3.2 4.8 0.00 0.00 0.00 49 1007.6
20260902091600 17 1 3.2 4.8 0.00 0.00 0.00 50 1007.4
20260902090601 17 232 6.4 9.7 0.00 0.00 0.00 51 1007.5
20260902085600 16 253 6.4 12.9 0.00 0.00 0.00 54 1007.5
20260902084622 16 222 1.6 6.4 0.00 0.00 0.00 56 1007.6
20260902083621 16 0.0 0.0 0.00 0.00 0.00 54 1007.6
20260902082600 17 203 3.2 4.8 0.00 0.00 0.00 53 1007.6
20260902081602 17 217 4.8 6.4 0.00 0.00 0.00 53 1007.5
20260902080642 17 257 4.8 6.4 0.00 0.00 0.00 53 1007.6